Starlink 5303

operational
NORAD ID: 55630 Int'l Des: 2023-021 Owner: SPXS Country: US Constellation: starlink
LEOCIRCULAR

Über Starlink 5303

Beschreibung wird geladen...

Live-Position

3D-Globus wird geladen...

Nächste Überflüge

Höhenverlauf

Altitude vs Time

uPlot chart will show altitude changes over time

Zweizeiliger Elementsatz

1 55630U 23021C 25350.33337963 -.00040296 00000-0 -33890-2 0 9997
2 55630 70.0024 54.6884 0003350 266.8629 349.1886 14.98326798 5774
Epoch: 16. Dez. 2025 • Age: 13 hours

Aktueller Status

Höhe 595.4 km
Geschwindigkeit 7.56 km/s
Subsatellitenpunkt -70.09°S, 73.32°W
Startdatum 17. Feb. 2023
Alter 2.8 years
Typ internet

Technische Details

Klassifizierung Payload
Masse 305.00 kg
Trockenmasse 290.00 kg
Gesamtmasse 305.00 kg
Länge 0.20 m
Durchmesser 2.80 m
Spannweite 9.00 m
Form Box + pan
Hersteller SPXS
Bus-Typ Starlink
Phasenstatus In Orbit
Besitzer/Staat SPXS/US

Große Konstellationen

Loading constellations...